Regional Weather Roundup
Issued by NWS

Home | Current Version | Previous Version | Graphics & Text | Print | Product List | Glossary On
Versions: 1 2 3 4 5 6 7 8 9 10 11 12 13 14 15 16 17 18 19 20 21 22 23 24 25 26 27 28 29 30 31 32 33 34 35 36 37 38 39 40 41 42 43 44 45 46 47 48 49 50
000
ASUS43 KLMK 191502
RWRKY
KENTUCKY REGIONAL WEATHER ROUNDUP
NATIONAL WEATHER SERVICE LOUISVILLE KY
1000 AM EST THU JAN 19 2017

NOTE "FAIR" INDICATES FEW OR NO CLOUDS BELOW 12,000 FEET
WITH NO SIGNIFICANT WEATHER AND/OR OBSTRUCTIONS TO VISIBILITY.

KYZ001>023-026-027-061>063-070>075-191600-
WESTERN AND SOUTH CENTRAL KENTUCKY

CITY           SKY/WX    TMP DP  RH WIND       PRES   REMARKS
PADUCAH        RAIN      47  45  93 E12       29.91F FOG
HENDERSON      CLOUDY    45  37  76 SE7       29.95F
OWENSBORO      CLOUDY    47  40  76 E9        29.97F
HOPKINSVILLE   CLOUDY    48  48 100 E8        29.94F
BOWLING GREEN  CLOUDY    48  44  86 E5        30.00F
GLASGOW        NOT AVBL
$$

KYZ024-025-028>034-038-045-046-053-191600-
NORTH CENTRAL KENTUCKY

CITY           SKY/WX    TMP DP  RH WIND       PRES   REMARKS
LOUISVILLE/SDF CLOUDY    45  38  76 E6        30.03F
LOUISVILLE/LOU CLOUDY    45  38  76 E5        30.04F
FORT KNOX      CLOUDY    42  39  89 E6        30.00F
$$

KYZ035>037-039>044-047>052-055>060-089>105-191600-
NORTHEAST KENTUCKY

CITY           SKY/WX    TMP DP  RH WIND       PRES   REMARKS
LEXINGTON      CLOUDY    45  39  79 E6        30.05S
COVINGTON      CLOUDY    41  38  89 SE8       30.04F
FRANKFORT      CLOUDY    43  38  82 E6        30.04F
$$

KYZ054-064>069-076>088-106>120-191600-
SOUTHEAST KENTUCKY

CITY           SKY/WX    TMP DP  RH WIND       PRES   REMARKS
JACKSON        MOSUNNY   43  38  82 CALM      30.06F
LONDON         CLOUDY    45  38  76 E5        30.06R
SOMERSET       CLOUDY    43  41  93 CALM      30.06F
MIDDLESBORO    MOSUNNY   44  40  87 CALM      30.08F
MONTICELLO     CLOUDY    48  43  82 VRB6      30.05F
$$





USA.gov is the U.S. government's official web portal to all federal, state and local government web resources and services.